DW2762 Weather Reports


Display with metric or nautical units.
time (UTC)temp
F
wind
direction
speed
MPH
gust
MPH
rain 1hr
in
rain 24hr
in
rain mn
in
humidity
%
barometer
mb
20260507073108 61 252 3.0 9.0 0.00 0.00 0.00 70 1011.7
20260507071608 59 232 6.0 9.0 0.00 0.00 0.00 75 1011.8
20260507070113 58 266 4.0 11.0 0.00 0.00 0.00 75 1011.6
20260507064613 59 227 5.0 9.0 0.00 0.00 0.00 75 1011.5
20260507063113 58 233 4.0 8.0 0.00 0.00 0.00 78 1011.4
20260507061612 57 209 2.0 9.0 0.00 0.00 0.00 79 1011.2
20260507060112 57 238 3.0 8.0 0.00 0.00 0.00 79 1011.0
20260507054612 56 290 2.0 9.0 0.00 0.00 0.00 81 1010.9
20260507053112 56 317 3.0 7.0 0.00 0.00 0.00 82 1010.8
20260507050112 56 241 1.0 8.0 0.00 0.00 0.00 84 1010.5
20260507043111 55 260 3.0 7.0 0.00 0.00 0.00 86 1010.1
20260507041612 54 273 1.0 7.0 0.00 0.00 0.00 88 1009.9
20260507040111 54 230 1.0 7.0 0.00 0.00 0.00 88 1009.8
20260507034611 54 242 2.0 4.0 0.00 0.00 0.00 89 1009.4
20260507033111 54 244 3.0 6.0 0.00 0.00 0.00 89 1009.4
20260507031611 53 267 0.0 0.0 0.00 0.00 0.00 90 1009.3
20260507030111 53 268 0.0 1.0 0.00 0.00 0.00 89 1009.1
20260507024611 53 268 0.0 1.0 0.00 0.00 0.00 89 1009.0
20260507023110 53 267 1.0 2.0 0.00 0.00 0.00 87 1008.9
20260507021611 54 268 0.0 2.0 0.00 0.00 0.00 86 1008.8
20260507020110 55 268 0.0 1.0 0.00 0.00 0.00 85 1008.9
20260507014610 55 268 1.0 3.0 0.00 0.00 0.00 84 1008.6
20260507013112 56 250 1.0 3.0 0.00 0.00 0.00 84 1008.6
20260507011610 56 244 3.0 6.0 0.00 0.00 0.00 83 1008.3
20260507010110 56 266 2.0 6.0 0.00 0.00 0.00 82 1008.0
20260507004610 56 245 4.0 8.0 0.00 0.00 0.00 82 1007.9
20260507003110 57 217 3.0 8.0 0.00 0.00 0.00 82 1007.7
20260507001610 57 274 2.0 6.0 0.00 0.00 0.00 81 1007.6
20260507000110 58 288 3.0 8.0 0.00 0.00 0.00 81 1007.2
20260506234610 58 263 4.0 10.0 0.00 0.00 0.00 81 1007.3
20260506233111 58 242 5.0 9.0 0.00 0.00 0.00 81 1007.0
20260506231609 58 217 2.0 4.0 0.00 0.00 0.00 79 1006.7
20260506230109 59 274 2.0 4.0 0.00 0.00 0.00 78 1006.3
20260506224611 58 254 4.0 7.0 0.00 0.00 0.00 77 1006.3
20260506223110 59 175 1.0 3.0 0.00 0.00 0.00 75 1006.2
20260506221609 59 154 0.0 2.0 0.00 0.00 0.00 74 1005.8
20260506220110 60 151 0.0 1.0 0.00 0.00 0.00 74 1005.8
20260506213110 61 194 3.0 5.0 0.00 0.00 0.00 72 1005.9
20260506211609 61 105 0.0 4.0 0.00 0.00 0.00 72 1005.2
20260506210108 62 143 2.0 4.0 0.00 0.00 0.00 71 1005.3
20260506204610 62 165 1.0 5.0 0.00 0.00 0.00 71 1005.1
20260506203108 63 145 2.0 5.0 0.00 0.00 0.00 70 1005.1
20260506200113 64 162 1.0 6.0 0.00 0.00 0.00 68 1004.8
20260506194614 64 157 3.0 8.0 0.00 0.00 0.00 68 1004.5
20260506193113 64 187 2.0 7.0 0.00 0.00 0.00 67 1004.5
20260506190113 65 165 1.0 6.0 0.00 0.00 0.00 64 1004.5
20260506184613 66 140 4.0 11.0 0.00 0.00 0.00 62 1004.5
20260506183113 66 242 4.0 10.0 0.00 0.00 0.00 62 1004.3
20260506181613 67 170 5.0 8.0 0.00 0.00 0.00 61 1004.1
20260506174612 68 155 2.0 9.0 0.00 0.00 0.00 59 1004.0
20260506173112 69 157 4.0 10.0 0.00 0.00 0.00 57 1003.9
20260506171612 69 142 4.0 10.0 0.00 0.00 0.00 56 1004.0
20260506164613 70 158 5.0 14.0 0.00 0.00 0.00 55 1004.2
20260506163113 71 141 7.0 18.0 0.00 0.00 0.00 53 1004.2
20260506161611 71 132 3.0 10.0 0.00 0.00 0.00 52 1004.5
20260506160112 72 147 4.0 16.0 0.00 0.00 0.00 50 1004.6
20260506154611 73 159 4.0 14.0 0.00 0.00 0.00 49 1004.7
20260506153112 73 197 6.0 15.0 0.00 0.00 0.00 50 1004.8
20260506151612 74 165 5.0 10.0 0.00 0.00 0.00 52 1005.0
20260506150111 73 178 4.0 15.0 0.00 0.00 0.00 51 1005.3
20260506144611 74 138 11.0 17.0 0.00 0.00 0.00 49 1005.5
20260506143111 74 165 4.0 14.0 0.00 0.00 0.00 52 1005.8
20260506141611 74 91 8.0 16.0 0.00 0.00 0.00 51 1006.1
20260506134610 72 170 9.0 15.0 0.00 0.00 0.00 53 1006.2
20260506133110 72 115 5.0 14.0 0.00 0.00 0.00 55 1006.4
20260506131610 73 146 6.0 14.0 0.00 0.00 0.00 55 1006.4
20260506130110 72 114 8.0 12.0 0.00 0.00 0.00 53 1006.7
20260506124610 72 132 6.0 15.0 0.00 0.00 0.00 55 1006.9
20260506121610 71 161 5.0 11.0 0.00 0.00 0.00 53 1007.2
20260506120110 72 179 6.0 11.0 0.00 0.00 0.00 51 1007.3
20260506114609 72 19 4.0 9.0 0.00 0.00 0.00 53 1007.3
20260506113111 72 140 3.0 10.0 0.00 0.00 0.00 52 1007.4
20260506111609 73 130 4.0 9.0 0.00 0.00 0.00 51 1007.4
20260506110109 71 322 3.0 12.0 0.00 0.00 0.00 53 1007.6
20260506104611 73 173 5.0 10.0 0.00 0.00 0.00 50 1007.8
20260506100111 72 141 5.0 9.0 0.00 0.00 0.00 52 1008.0
20260506094609 72 160 5.0 11.0 0.00 0.00 0.00 55 1008.2
20260506093110 71 195 4.0 7.0 0.00 0.00 0.00 53 1008.2
20260506091609 69 167 3.0 11.0 0.00 0.00 0.00 55 1008.3
20260506090110 70 153 5.0 11.0 0.00 0.00 0.00 56 1008.4
20260506083109 67 218 7.0 13.0 0.00 0.00 0.00 61 1008.4
20260506081609 68 157 4.0 8.0 0.00 0.00 0.00 63 1008.5
20260506080114 68 125 7.0 13.0 0.00 0.00 0.00 65 1008.5